• In Lithuania
  • List of Countries
  • For 7 days
  • Water Temperature
  • Satellite Maps
  • Weather Map
  • Weather Widgets
  • user-avatar
    Login

    Hourly Weather Karlsruhe

    Today, 18 December, Monday

    Time Temperature Precipitation Wind Pressure Humidity
    00:00 -1°C° 0 mm 3 mps 759 mmHg 84%
    01:00 0°C° 0 mm 3 mps 758 mmHg 83%
    02:00 0°C° 0.2 mm 3 mps 758 mmHg 82%
    03:00 0°C° 0.2 mm 3 mps 757 mmHg 82%
    04:00 0°C° 0.2 mm 3 mps 756 mmHg 82%
    05:00 0°C° 0.9 mm 3 mps 756 mmHg 85%
    06:00 0°C° 0.9 mm 3 mps 755 mmHg 88%
    07:00 0°C° 0 mm 3 mps 754 mmHg 90%
    08:00 0°C° 0.6 mm 3 mps 755 mmHg 90%
    09:00 +1°C° 0.6 mm 2 mps 755 mmHg 91%
    10:00 +2°C° 0.6 mm 2 mps 755 mmHg 91%
    11:00 +3°C° 0 mm 1 mps 755 mmHg 90%
    12:00 +4°C° 0 mm 1 mps 756 mmHg 89%
    13:00 +4°C° 0 mm 1 mps 756 mmHg 88%
    14:00 +3°C° 0 mm 0 mps 756 mmHg 90%
    15:00 +3°C° 0 mm 0 mps 757 mmHg 91%
    16:00 +3°C° 0 mm 0 mps 757 mmHg 93%
    17:00 +2°C° 0 mm 0 mps 758 mmHg 93%
    18:00 +2°C° 0 mm 0 mps 758 mmHg 93%
    19:00 +2°C° 0 mm 0 mps 759 mmHg 93%
    20:00 +2°C° 0 mm 0 mps 759 mmHg 93%
    21:00 +2°C° 0 mm 0 mps 760 mmHg 93%
    22:00 +2°C° 0 mm 0 mps 760 mmHg 93%
    23:00 +2°C° 0 mm 0 mps 760 mmHg 93%

    Tomorrow, 19 December, Tuesday

    Time Temperature Precipitation Wind Pressure Humidity
    00:00 +2°C° 0 mm 0 mps 761 mmHg 93%
    01:00 +1°C° 0 mm 0 mps 761 mmHg 93%
    02:00 +1°C° 0 mm 0 mps 762 mmHg 94%
    03:00 +1°C° 0 mm 0 mps 762 mmHg 94%
    04:00 +2°C° 0 mm 0 mps 762 mmHg 94%
    05:00 +1°C° 0 mm 0 mps 763 mmHg 94%
    06:00 +1°C° 0 mm 0 mps 763 mmHg 94%
    07:00 +1°C° 0 mm 0 mps 763 mmHg 94%
    08:00 +2°C° 0 mm 0 mps 764 mmHg 93%
    09:00 +2°C° 0 mm 0 mps 764 mmHg 92%
    10:00 +2°C° 0 mm 0 mps 765 mmHg 91%
    11:00 +3°C° 0 mm 0 mps 765 mmHg 89%
    12:00 +4°C° 0 mm 1 mps 765 mmHg 86%
    13:00 +5°C° 0 mm 1 mps 765 mmHg 84%
    14:00 +4°C° 0 mm 1 mps 765 mmHg 86%
    15:00 +4°C° 0 mm 1 mps 765 mmHg 88%
    16:00 +3°C° 0 mm 1 mps 765 mmHg 90%
    17:00 +3°C° 0.2 mm 1 mps 765 mmHg 91%
    18:00 +3°C° 0.2 mm 1 mps 765 mmHg 92%
    19:00 +3°C° 0.2 mm 1 mps 766 mmHg 92%
    20:00 +3°C° 0.3 mm 1 mps 766 mmHg 93%
    21:00 +3°C° 0.3 mm 1 mps 766 mmHg 93%
    22:00 +2°C° 0.3 mm 2 mps 766 mmHg 94%
    23:00 +2°C° 0.4 mm 2 mps 766 mmHg 94%

    Day after tomorrow, 20 December, Wednesday

    Time Temperature Precipitation Wind Pressure Humidity
    00:00 +2°C° 0.4 mm 2 mps 766 mmHg 94%
    01:00 +3°C° 0.4 mm 2 mps 765 mmHg 94%
    02:00 +3°C° 0.6 mm 2 mps 765 mmHg 94%
    03:00 +3°C° 0.6 mm 2 mps 765 mmHg 94%
    04:00 +3°C° 0.6 mm 2 mps 764 mmHg 94%
    05:00 +3°C° 0.7 mm 2 mps 764 mmHg 95%
    06:00 +3°C° 0.7 mm 2 mps 764 mmHg 95%
    07:00 +3°C° 0.7 mm 2 mps 764 mmHg 95%
    08:00 +3°C° 0.9 mm 2 mps 764 mmHg 95%
    09:00 +3°C° 0.9 mm 2 mps 764 mmHg 95%
    10:00 +3°C° 0.9 mm 2 mps 764 mmHg 95%
    11:00 +3°C° 1 mm 2 mps 763 mmHg 96%
    12:00 +3°C° 1 mm 2 mps 763 mmHg 96%
    13:00 +3°C° 1 mm 2 mps 763 mmHg 97%
    14:00 +4°C° 0.7 mm 2 mps 763 mmHg 97%
    15:00 +4°C° 0.7 mm 2 mps 763 mmHg 97%
    16:00 +4°C° 0.7 mm 2 mps 763 mmHg 97%
    17:00 +5°C° 0.6 mm 1 mps 763 mmHg 97%
    18:00 +5°C° 0.6 mm 1 mps 763 mmHg 98%
    19:00 +5°C° 0.6 mm 1 mps 763 mmHg 98%
    20:00 +5°C° 0.2 mm 1 mps 764 mmHg 98%
    21:00 +6°C° 0.2 mm 1 mps 764 mmHg 98%
    22:00 +6°C° 0.2 mm 1 mps 764 mmHg 98%
    23:00 +6°C° 0.1 mm 1 mps 764 mmHg 98%

    21 December, Thursday

    Time Temperature Precipitation Wind Pressure Humidity
    00:00 +6°C° 0.1 mm 1 mps 764 mmHg 98%
    01:00 +6°C° 0.1 mm 1 mps 764 mmHg 98%
    02:00 +6°C° 0.1 mm 1 mps 764 mmHg 98%
    03:00 +6°C° 0.1 mm 1 mps 764 mmHg 98%
    04:00 +6°C° 0.1 mm 1 mps 764 mmHg 98%
    05:00 +6°C° 0.1 mm 1 mps 764 mmHg 98%
    06:00 +5°C° 0.1 mm 2 mps 764 mmHg 98%
    07:00 +5°C° 0.1 mm 2 mps 764 mmHg 98%
    08:00 +6°C° 0.1 mm 2 mps 764 mmHg 98%
    09:00 +6°C° 0.1 mm 2 mps 764 mmHg 98%
    10:00 +6°C° 0.1 mm 2 mps 764 mmHg 98%
    11:00 +7°C° 0.3 mm 3 mps 764 mmHg 97%
    12:00 +7°C° 0.3 mm 3 mps 764 mmHg 96%
    13:00 +8°C° 0.3 mm 3 mps 763 mmHg 95%
    14:00 +8°C° 0.9 mm 3 mps 763 mmHg 95%
    15:00 +8°C° 0.9 mm 3 mps 763 mmHg 95%
    16:00 +7°C° 0.9 mm 4 mps 763 mmHg 96%
    17:00 +8°C° 1.6 mm 3 mps 763 mmHg 96%
    18:00 +8°C° 1.6 mm 3 mps 763 mmHg 96%
    19:00 +8°C° 1.6 mm 3 mps 763 mmHg 96%
    20:00 +8°C° 0.7 mm 3 mps 763 mmHg 97%
    21:00 +7°C° 0.7 mm 2 mps 764 mmHg 97%
    22:00 +7°C° 0.7 mm 2 mps 764 mmHg 97%
    23:00 +7°C° 0.1 mm 2 mps 764 mmHg 97%

    22 December, Friday

    Time Temperature Precipitation Wind Pressure Humidity
    00:00 +7°C° 0.1 mm 2 mps 764 mmHg 97%
    01:00 +8°C° 0.1 mm 1 mps 764 mmHg 97%
    02:00 +8°C° 0.1 mm 1 mps 764 mmHg 97%
    03:00 +8°C° 0.1 mm 1 mps 764 mmHg 98%
    04:00 +8°C° 0.1 mm 1 mps 764 mmHg 98%
    05:00 +8°C° 0.2 mm 1 mps 765 mmHg 97%
    06:00 +8°C° 0.2 mm 1 mps 765 mmHg 97%
    07:00 +8°C° 0.2 mm 1 mps 765 mmHg 97%
    08:00 +8°C° 0.1 mm 1 mps 765 mmHg 97%
    09:00 +8°C° 0.1 mm 1 mps 765 mmHg 97%
    10:00 +8°C° 0.1 mm 1 mps 766 mmHg 96%
    11:00 +8°C° 0 mm 1 mps 765 mmHg 93%
    12:00 +9°C° 0 mm 1 mps 765 mmHg 90%
    13:00 +9°C° 0 mm 1 mps 765 mmHg 87%
    14:00 +9°C° 0 mm 1 mps 765 mmHg 89%
    15:00 +8°C° 0 mm 1 mps 765 mmHg 90%
    16:00 +8°C° 0 mm 1 mps 765 mmHg 91%
    17:00 +7°C° 0 mm 1 mps 765 mmHg 92%
    18:00 +6°C° 0 mm 1 mps 766 mmHg 93%
    19:00 +6°C° 0 mm 1 mps 766 mmHg 94%
    20:00 +5°C° 0 mm 1 mps 766 mmHg 94%
    21:00 +5°C° 0 mm 1 mps 766 mmHg 94%
    22:00 +5°C° 0 mm 1 mps 766 mmHg 94%
    23:00 +4°C° 0 mm 1 mps 766 mmHg 95%

    23 December, Saturday

    Time Temperature Precipitation Wind Pressure Humidity
    00:00 +4°C° 0 mm 1 mps 766 mmHg 95%
    01:00 +4°C° 0 mm 1 mps 765 mmHg 95%
    02:00 +4°C° 0 mm 1 mps 765 mmHg 95%
    03:00 +4°C° 0 mm 1 mps 765 mmHg 95%
    04:00 +3°C° 0 mm 2 mps 765 mmHg 94%
    05:00 +4°C° 0 mm 1 mps 765 mmHg 94%
    06:00 +4°C° 0 mm 1 mps 765 mmHg 93%
    07:00 +3°C° 0 mm 1 mps 765 mmHg 93%
    08:00 +4°C° 0 mm 1 mps 765 mmHg 92%
    09:00 +4°C° 0 mm 1 mps 766 mmHg 91%
    10:00 +5°C° 0 mm 1 mps 766 mmHg 90%
    11:00 +5°C° 0 mm 1 mps 765 mmHg 87%
    12:00 +5°C° 0 mm 2 mps 765 mmHg 85%
    13:00 +6°C° 0 mm 2 mps 765 mmHg 83%
    14:00 +7°C° 0 mm 1 mps 765 mmHg 85%
    15:00 +6°C° 0 mm 1 mps 764 mmHg 87%
    16:00 +6°C° 0 mm 1 mps 764 mmHg 89%
    17:00 +6°C° 0 mm 1 mps 764 mmHg 89%
    18:00 +6°C° 0 mm 1 mps 764 mmHg 90%
    19:00 +5°C° 0 mm 1 mps 764 mmHg 91%
    20:00 +5°C° 0 mm 1 mps 764 mmHg 91%
    21:00 +5°C° 0 mm 1 mps 764 mmHg 91%
    22:00 +5°C° 0 mm 1 mps 763 mmHg 92%
    23:00 +4°C° 0 mm 1 mps 763 mmHg 92%
    Show more